Weather Roundup
Issued by NWS Corpus Christi, TX

Home | Current Version | Previous Version | Text Only | Print | Product List | Glossary On
Versions: 1 2 3 4 5 6 7 8 9 10 11 12 13 14 15 16 17 18 19 20 21 22 23 24 25 26 27 28 29 30 31 32 33 34 35 36 37 38 39 40 41 42 43 44 45 46 47 48 49 50
000
ASUS44 KCRP 192211
HRRCRP

SOUTH TEXAS REGIONAL WEATHER ROUNDUP
NATIONAL WEATHER SERVICE CORPUS CHRISTI TX
500 PM CDT TUE SEP 19 2017


TXZ229>244-192300-
...CORPUS CHRISTI AREA OBSERVATIONS...

CITY           SKY/WX    TMP DP  RH WIND       PRES   REMARKS
CORPUS CHRISTI MOSUNNY   91  76  61 SE20      29.83F HX 103
NAS CORPUS CHR MOSUNNY   89  78  70 SE17      29.84F HX 103
ROCKPORT       MOSUNNY   87  76  69 SE16      29.84F HX  97
KINGSVILLE ARP FAIR      94  78  59 E16       29.80F HX 109
KINGSVILLE NAS MOSUNNY   93  77  59 SE18G25   29.81F HX 107
ALICE          MOSUNNY   93  73  52 SE15G25   29.80S HX 102
$$

...VICTORIA AREA OBSERVATIONS...

CITY           SKY/WX    TMP DP  RH WIND       PRES   REMARKS
PORT LAVACA    MOSUNNY   88  72  58 SE13G20   29.86S HX  95
VICTORIA       MOSUNNY   91  72  53 S14       29.84F HX  98
BEEVILLE       FAIR      93  63  37 SE14      29.82F HX  93
PLEASANTON     PTSUNNY   99  63  30 SE7       29.80F HX 100
SAN ANTONIO    PTSUNNY   94  68  42 S8        29.83F HX  98
$$

...LAREDO AREA OBSERVATIONS...

CITY           SKY/WX    TMP DP  RH WIND       PRES   REMARKS
LAREDO         MOSUNNY  100  66  32 S10G18    29.77F HX 104
COTULLA        MOSUNNY   99  63  30 S10G22    29.77F HX 101
DEL RIO        CLOUDY    83  73  72 CALM      29.80F
MCALLEN        MOSUNNY   98  70  40 SE18      29.79F HX 105
HEBBRONVILLE   PTSUNNY   98  61  28 SE15G21   29.80F HX  98
$$

...OTHER TEXAS OBSERVATIONS...

CITY           SKY/WX    TMP DP  RH WIND       PRES   REMARKS
BROWNSVILLE    MOSUNNY   90  76  63 SE14G23   29.83F HX 101
HOUSTON        PTSUNNY   89  77  67 SE14      29.85F HX 101
COL. STATION   MOSUNNY   91  72  53 S10       29.84F HX  98
AUSTIN         PTSUNNY   93  73  52 S12G20    29.83F HX 102
WACO           SUNNY     96  68  39 S14       29.80F HX 101
FORT WORTH     PTSUNNY   97  67  37 S15       29.75F HX 101
WICHITA FALLS  TSTM      74  66  76 N10       29.76R
LUBBOCK        MOSUNNY   95  42  16 SW22G30   29.80F HX  91
EL PASO        MOSUNNY   93  49  22 W14G30    29.90F HX  90
$$

...MARINE OBSERVATIONS...

STATION/POSITION TIME  SKY/WX   TEMP    WIND        PRES    VSBY  WAVE   SWELL
                                AIR SEA DIR/SP/G                  HT/PER HT/PER
                 (UTC)          (F)     (DEG/KT/KT) (MB)    (MI)  (FT/S) (FT/S)
PORT ARANSAS     NOT AVBL
BUOY 90 E PORT A 2150            83 84  110/  8/ 10 1011.8F         2/ 4   2/ 4
BUOY 200 E PT IS 2150            84 86  120/  6/  8 1012.2F         2/ 5   2/ 5
BUOY 15 E GALVES 2050            83 84  140/  8/ 10 1012.8          2/ 4   2/ 4
$$



USA.gov is the U.S. government's official web portal to all federal, state and local government web resources and services.